• In Deutschland
  • Länderverzeichnis
  • Für 7 Tage
  • Wassertemperatur
  • Satellitenkarten
  • Wetterkarte
  • Widgets
  • user-avatar
    Anmelden

    Stündliche Wetter Mykhalkove

    Heute, 18 September, Dienstag

    Zeit Temperatur Niederschläge Wind Luftdruck Luftfeuchtigkeit
    00:00 +15°C° 0 mm 1 m/S 746 mmHg 65%
    01:00 +14°C° 0 mm 1 m/S 746 mmHg 66%
    02:00 +14°C° 0 mm 1 m/S 746 mmHg 67%
    03:00 +14°C° 0 mm 1 m/S 746 mmHg 68%
    04:00 +14°C° 0 mm 1 m/S 746 mmHg 68%
    05:00 +13°C° 0 mm 1 m/S 746 mmHg 69%
    06:00 +15°C° 0 mm 1 m/S 746 mmHg 67%
    07:00 +16°C° 0 mm 1 m/S 746 mmHg 64%
    08:00 +17°C° 0 mm 2 m/S 746 mmHg 59%
    09:00 +19°C° 0 mm 2 m/S 747 mmHg 55%
    10:00 +20°C° 0 mm 2 m/S 747 mmHg 51%
    11:00 +23°C° 0 mm 2 m/S 747 mmHg 48%
    12:00 +24°C° 0 mm 2 m/S 746 mmHg 45%
    13:00 +24°C° 0 mm 2 m/S 746 mmHg 43%
    14:00 +25°C° 0 mm 2 m/S 746 mmHg 40%
    15:00 +25°C° 0 mm 1 m/S 746 mmHg 42%
    16:00 +25°C° 0 mm 1 m/S 745 mmHg 45%
    17:00 +25°C° 0 mm 1 m/S 745 mmHg 47%
    18:00 +23°C° 0 mm 1 m/S 745 mmHg 50%
    19:00 +21°C° 0 mm 1 m/S 745 mmHg 53%
    20:00 +19°C° 0 mm 1 m/S 745 mmHg 56%
    21:00 +19°C° 0 mm 1 m/S 746 mmHg 57%
    22:00 +18°C° 0 mm 1 m/S 746 mmHg 59%
    23:00 +18°C° 0 mm 1 m/S 746 mmHg 60%

    Morgen, 19 September, Mittwoch

    Zeit Temperatur Niederschläge Wind Luftdruck Luftfeuchtigkeit
    00:00 +18°C° 0 mm 1 m/S 746 mmHg 61%
    01:00 +16°C° 0 mm 1 m/S 746 mmHg 63%
    02:00 +16°C° 0 mm 1 m/S 746 mmHg 64%
    03:00 +15°C° 0 mm 1 m/S 746 mmHg 65%
    04:00 +15°C° 0 mm 1 m/S 746 mmHg 67%
    05:00 +15°C° 0 mm 1 m/S 746 mmHg 68%
    06:00 +16°C° 0 mm 2 m/S 746 mmHg 66%
    07:00 +17°C° 0 mm 2 m/S 746 mmHg 63%
    08:00 +18°C° 0 mm 2 m/S 746 mmHg 61%
    09:00 +20°C° 0 mm 2 m/S 746 mmHg 55%
    10:00 +22°C° 0 mm 3 m/S 746 mmHg 49%
    11:00 +25°C° 0 mm 3 m/S 746 mmHg 44%
    12:00 +26°C° 0 mm 3 m/S 746 mmHg 41%
    13:00 +27°C° 0 mm 3 m/S 746 mmHg 39%
    14:00 +27°C° 0 mm 3 m/S 746 mmHg 37%
    15:00 +27°C° 0 mm 2 m/S 745 mmHg 39%
    16:00 +27°C° 0 mm 2 m/S 745 mmHg 41%
    17:00 +26°C° 0 mm 2 m/S 745 mmHg 43%
    18:00 +24°C° 0 mm 2 m/S 745 mmHg 46%
    19:00 +23°C° 0 mm 1 m/S 745 mmHg 48%
    20:00 +21°C° 0 mm 1 m/S 745 mmHg 51%
    21:00 +20°C° 0 mm 1 m/S 745 mmHg 52%
    22:00 +20°C° 0 mm 1 m/S 745 mmHg 53%
    23:00 +19°C° 0 mm 1 m/S 746 mmHg 54%

    übermorgen, 20 September, Donnerstag

    Zeit Temperatur Niederschläge Wind Luftdruck Luftfeuchtigkeit
    00:00 +19°C° 0 mm 1 m/S 745 mmHg 54%
    01:00 +18°C° 0 mm 1 m/S 745 mmHg 55%
    02:00 +18°C° 0 mm 1 m/S 745 mmHg 56%
    03:00 +16°C° 0 mm 1 m/S 745 mmHg 56%
    04:00 +16°C° 0 mm 1 m/S 745 mmHg 57%
    05:00 +15°C° 0 mm 1 m/S 745 mmHg 58%
    06:00 +16°C° 0 mm 1 m/S 745 mmHg 56%
    07:00 +19°C° 0 mm 1 m/S 745 mmHg 54%
    08:00 +20°C° 0 mm 1 m/S 746 mmHg 52%
    09:00 +21°C° 0 mm 2 m/S 746 mmHg 47%
    10:00 +23°C° 0 mm 2 m/S 746 mmHg 42%
    11:00 +25°C° 0 mm 2 m/S 746 mmHg 37%
    12:00 +26°C° 0 mm 2 m/S 745 mmHg 35%
    13:00 +27°C° 0 mm 2 m/S 745 mmHg 33%
    14:00 +28°C° 0 mm 2 m/S 745 mmHg 31%
    15:00 +27°C° 0 mm 2 m/S 745 mmHg 34%
    16:00 +27°C° 0 mm 2 m/S 744 mmHg 37%
    17:00 +26°C° 0 mm 1 m/S 744 mmHg 39%
    18:00 +25°C° 0 mm 1 m/S 744 mmHg 41%
    19:00 +23°C° 0 mm 1 m/S 744 mmHg 43%
    20:00 +21°C° 0 mm 1 m/S 744 mmHg 46%
    21:00 +20°C° 0 mm 1 m/S 744 mmHg 47%
    22:00 +20°C° 0 mm 1 m/S 744 mmHg 48%
    23:00 +19°C° 0 mm 1 m/S 744 mmHg 49%

    21 September, Freitag

    Zeit Temperatur Niederschläge Wind Luftdruck Luftfeuchtigkeit
    00:00 +19°C° 0 mm 1 m/S 744 mmHg 50%
    01:00 +18°C° 0 mm 1 m/S 744 mmHg 52%
    02:00 +18°C° 0 mm 1 m/S 744 mmHg 53%
    03:00 +18°C° 0 mm 1 m/S 744 mmHg 54%
    04:00 +16°C° 0 mm 1 m/S 744 mmHg 55%
    05:00 +16°C° 0 mm 1 m/S 743 mmHg 56%
    06:00 +17°C° 0 mm 2 m/S 744 mmHg 55%
    07:00 +18°C° 0 mm 2 m/S 744 mmHg 53%
    08:00 +19°C° 0 mm 2 m/S 744 mmHg 52%
    09:00 +21°C° 0 mm 3 m/S 744 mmHg 47%
    10:00 +24°C° 0 mm 3 m/S 744 mmHg 42%
    11:00 +27°C° 0 mm 4 m/S 744 mmHg 37%
    12:00 +27°C° 0 mm 4 m/S 743 mmHg 35%
    13:00 +28°C° 0 mm 4 m/S 743 mmHg 33%
    14:00 +28°C° 0 mm 4 m/S 742 mmHg 32%
    15:00 +28°C° 0 mm 4 m/S 742 mmHg 34%
    16:00 +27°C° 0 mm 3 m/S 742 mmHg 37%
    17:00 +27°C° 0 mm 3 m/S 741 mmHg 40%
    18:00 +25°C° 0 mm 3 m/S 741 mmHg 42%
    19:00 +22°C° 0 mm 3 m/S 741 mmHg 44%
    20:00 +20°C° 0 mm 3 m/S 741 mmHg 46%
    21:00 +20°C° 0 mm 3 m/S 741 mmHg 47%
    22:00 +19°C° 0 mm 3 m/S 741 mmHg 48%
    23:00 +19°C° 0 mm 3 m/S 741 mmHg 49%

    22 September, Samstag

    Zeit Temperatur Niederschläge Wind Luftdruck Luftfeuchtigkeit
    00:00 +18°C° 0 mm 3 m/S 740 mmHg 49%
    01:00 +18°C° 0 mm 3 m/S 740 mmHg 50%
    02:00 +18°C° 0 mm 3 m/S 740 mmHg 51%
    03:00 +17°C° 0 mm 3 m/S 740 mmHg 52%
    04:00 +16°C° 0 mm 3 m/S 740 mmHg 54%
    05:00 +16°C° 0 mm 3 m/S 740 mmHg 56%
    06:00 +17°C° 0 mm 3 m/S 740 mmHg 55%
    07:00 +18°C° 0 mm 3 m/S 740 mmHg 54%
    08:00 +19°C° 0 mm 4 m/S 740 mmHg 53%
    09:00 +21°C° 0 mm 4 m/S 739 mmHg 48%
    10:00 +23°C° 0 mm 4 m/S 739 mmHg 43%
    11:00 +26°C° 0 mm 4 m/S 739 mmHg 39%
    12:00 +27°C° 0 mm 4 m/S 739 mmHg 37%
    13:00 +28°C° 0 mm 4 m/S 738 mmHg 35%
    14:00 +28°C° 0 mm 4 m/S 738 mmHg 33%
    15:00 +27°C° 0 mm 4 m/S 738 mmHg 38%
    16:00 +26°C° 0 mm 4 m/S 738 mmHg 42%
    17:00 +25°C° 0 mm 4 m/S 738 mmHg 47%
    18:00 +21°C° 0 mm 6 m/S 738 mmHg 54%
    19:00 +18°C° 0 mm 7 m/S 739 mmHg 61%
    20:00 +15°C° 0 mm 9 m/S 739 mmHg 69%
    21:00 +12°C° 1 mm 9 m/S 740 mmHg 73%
    22:00 +11°C° 1 mm 9 m/S 740 mmHg 78%
    23:00 +8°C° 1 mm 9 m/S 741 mmHg 82%

    23 September, Sonntag

    Zeit Temperatur Niederschläge Wind Luftdruck Luftfeuchtigkeit
    00:00 +8°C° 1.7 mm 9 m/S 741 mmHg 83%
    01:00 +7°C° 1.7 mm 9 m/S 741 mmHg 84%
    02:00 +7°C° 1.7 mm 8 m/S 741 mmHg 84%
    03:00 +7°C° 0.5 mm 8 m/S 741 mmHg 84%
    04:00 +7°C° 0.5 mm 8 m/S 742 mmHg 83%
    05:00 +9°C° 0.5 mm 7 m/S 742 mmHg 83%
    06:00 +9°C° 0 mm 8 m/S 742 mmHg 81%
    07:00 +9°C° 0 mm 8 m/S 743 mmHg 79%
    08:00 +9°C° 0 mm 8 m/S 743 mmHg 77%
    09:00 +11°C° 0 mm 8 m/S 743 mmHg 69%
    10:00 +12°C° 0 mm 8 m/S 743 mmHg 61%
    11:00 +13°C° 0 mm 8 m/S 743 mmHg 53%
    12:00 +15°C° 0 mm 8 m/S 742 mmHg 51%
    13:00 +15°C° 0 mm 8 m/S 742 mmHg 49%
    14:00 +16°C° 0 mm 8 m/S 742 mmHg 47%
    15:00 +16°C° 0 mm 7 m/S 742 mmHg 48%
    16:00 +15°C° 0 mm 7 m/S 742 mmHg 50%
    17:00 +15°C° 0 mm 6 m/S 742 mmHg 51%
    18:00 +14°C° 0 mm 5 m/S 742 mmHg 56%
    19:00 +12°C° 0 mm 4 m/S 742 mmHg 62%
    20:00 +11°C° 0 mm 3 m/S 742 mmHg 67%
    21:00 +10°C° 0 mm 3 m/S 742 mmHg 69%
    22:00 +10°C° 0 mm 3 m/S 741 mmHg 71%
    23:00 +10°C° 0 mm 3 m/S 741 mmHg 73%
    Mehr zeigen